Miscellaneous Local Product
Issued by NWS North Platte, NE

Home | Current Version | Previous Version | Text Only | Print | Product List | Glossary On
Versions: 1 2 3 4 5 6 7 8 9 10 11 12 13 14 15 16 17 18 19 20 21 22 23 24 25 26 27 28 29 30 31 32 33 34 35 36 37 38 39 40 41 42 43 44 45 46 47 48 49 50
785
AXUS43 KLBF 271510
MISLBF


WESTERN AND NORTH CENTRAL NEBRASKA HOURLY WEATHER ROUNDUP
NATIONAL WEATHER SERVICE NORTH PLATTE NE
1000 AM CDT WED JUL 27 2016

NOTE: "FAIR" INDICATES FEW OR NO CLOUDS BELOW 12,000 FEET WITH NO
SIGNIFICANT WEATHER AND/OR OBSTRUCTIONS TO VISIBILITY.

NOTE: STATIONS NOT REPORTING VARIABLES SUCH AS SKY/WEATHER OR
PRESSURE ARE PROVIDED BY RAWS AND APRS NETWORKS AND ARE NOT UNDER
NATIONAL WEATHER SERVICE QUALITY CONTROL.

...OBSERVATIONS IN AND NEAR THE EASTERN PANHANDLE OF NEBRASKA...

CITY           SKY/WX    TMP DP  RH WIND       PRES   REMARKS
PINE RIDGE     CLOUDY    68  60  75 W3        30.12F
CHADRON        PTSUNNY   66  60  81 SW9       30.10F
ALLIANCE       CLOUDY    65  60  84 NW8       30.16F
SIDNEY         CLOUDY    68  58  70 N10       30.22F
CRESCENT LAKE    N/A     70  59  68 NW13G23     N/A
$$

...OBSERVATIONS IN NORTHERN NEBRASKA AND FAR SOUTHERN SOUTH DAKOTA...

CITY           SKY/WX    TMP DP  RH WIND       PRES   REMARKS
WINNER         FAIR      78  61  55 NW8       30.05R
VALENTINE      MOSUNNY   73  59  61 MISG      30.10R
THEDFORD       CLOUDY    69  62  77 NW5       30.13R
AINSWORTH      SUNNY     71  63  75 NW8       30.10R
O`NEILL        SUNNY     73  59  59 N8        30.09S
ORD            SUNNY     72  61  68 N9        30.08R
BROKEN BOW     SUNNY     72  65  78 N6        30.10R
VALENTINE NWR    N/A     70  61  72 NW9         N/A
BUTTE            N/A     74  61  64 CALM        N/A
HALSEY           N/A     68  62  79 CALM        N/A
EWING            N/A     73  65  75 N3          N/A
$$

...OBSERVATIONS IN SOUTHWEST NEBRASKA AND FAR NORTHEAST COLORADO...

CITY           SKY/WX    TMP DP  RH WIND       PRES   REMARKS
HOLYOKE        FAIR      72  61  68 W3        30.18R
IMPERIAL       SUNNY     71  60  68 SW9       30.11F
OGALLALA       MOSUNNY   74  60  60 W10       30.15R
NORTH PLATTE   CLOUDY    69  61  75 NE3       30.10R
MCCOOK         SUNNY     72  60  66 W6        30.07S
LEXINGTON      SUNNY     69  64  81 NW8       30.08S
STAPLETON        N/A     66  63  89 CALM        N/A
GOTHENBURG       N/A     66  58  77 NW5         N/A
CALLAWAY         N/A     66  64  92 W6          N/A
$$

...OBSERVATIONS IN CENTRAL LINCOLN COUNTY AREA...

CITY           SKY/WX    TMP DP  RH WIND       PRES   REMARKS
N.P. AIRPORT   CLOUDY    69  61  75 NE3       30.10R
N.P. DOWNTOWN    N/A     67  62  83 N6          N/A
N.P. SOUTHEAST   N/A     68  61  78 CALM        N/A
N.P. HILLCREST   N/A     67  61  81 N8          N/A
$$

...SOME OBSERVATIONS FROM AROUND THE REGION...

CITY           SKY/WX    TMP DP  RH WIND       PRES   REMARKS
DENVER         MOSUNNY   70  50  49 N12       30.23R
LARAMIE        SUNNY     69  41  36 E8        30.33S
CHEYENNE       SUNNY     66  53  63 N10       30.29F
SCOTTSBLUFF    MOSUNNY   69  60  73 E13       30.15F
RAPID CITY     CLOUDY    69  62  78 CALM      30.12S
BISMARCK       MOSUNNY   70  62  76 VRB3      30.11S
PIERRE         SUNNY     74  64  71 N5        30.05R
SIOUX FALLS    MOSUNNY   78  67  68 N9        29.98R
OMAHA          CLOUDY    78  68  71 SW8       30.01R
GRAND ISLAND   SUNNY     72  62  71 N8        30.08R
KANSAS CITY    MOSUNNY   80  72  76 SE5       30.00R
WICHITA        CLOUDY    81  73  76 S9        29.97F
OKLAHOMA CITY  CLOUDY    80  70  71 CALM      30.00S
DALLAS         MOSUNNY   88  73  61 SE5       29.95S HX  95
AMARILLO       SUNNY     81  66  60 SE10      30.12R
DODGE CITY     MOSUNNY   77  70  79 S13       30.04F
HAYS           CLOUDY    79  61  53 CALM      30.02R
GOODLAND       MOSUNNY   72  64  76 S15       30.12S
$$




USA.gov is the U.S. government's official web portal to all federal, state and local government web resources and services.